owner,sensor,date,latitude,longitude,vertical_datum,sea_water_practical_salinity,qcFlag 
SCCF RECON,ioos:station:SCCF:16:1,2010-11-01T00:00:00Z,26.4345,-81.9647,2.723,34.02,1111122 
SCCF RECON,ioos:station:SCCF:16:1,2010-11-01T01:00:00Z,26.4345,-81.9647,2.757,34.13,1111122 
SCCF RECON,ioos:station:SCCF:16:1,2010-11-01T02:00:00Z,26.4345,-81.9647,2.761,34.17,1111122 
SCCF RECON,ioos:station:SCCF:16:1,2010-11-01T03:00:00Z,26.4345,-81.9647,2.711,34.2,1111122 
SCCF RECON,ioos:station:SCCF:16:1,2010-11-01T04:00:00Z,26.4345,-81.9647,2.579,34.2,1111122 
SCCF RECON,ioos:station:SCCF:16:1,2010-11-01T05:00:00Z,26.4345,-81.9647,2.5,34.1,1111122 
SCCF RECON,ioos:station:SCCF:16:1,2010-11-01T06:00:00Z,26.4345,-81.9647,2.42,33.93,1111122 
SCCF RECON,ioos:station:SCCF:16:1,2010-11-01T07:00:00Z,26.4345,-81.9647,2.345,33.65,1111122 
SCCF RECON,ioos:station:SCCF:16:1,2010-11-01T08:00:00Z,26.4345,-81.9647,2.404,33.38,1111122 
SCCF RECON,ioos:station:SCCF:16:1,2010-11-01T09:00:00Z,26.4345,-81.9647,2.499,33.31,1111122 
SCCF RECON,ioos:station:SCCF:16:1,2010-11-01T10:00:00Z,26.4345,-81.9647,2.612,33.64,1111122 
SCCF RECON,ioos:station:SCCF:16:1,2010-11-01T11:00:00Z,26.4345,-81.9647,2.701,34.02,1111122 
SCCF RECON,ioos:station:SCCF:16:1,2010-11-01T12:00:00Z,26.4345,-81.9647,2.78,34.03,1111122 
SCCF RECON,ioos:station:SCCF:16:1,2010-11-01T13:00:00Z,26.4345,-81.9647,2.807,34.1,1111122 
SCCF RECON,ioos:station:SCCF:16:1,2010-11-01T14:00:00Z,26.4345,-81.9647,2.786,34.04,1111122 
SCCF RECON,ioos:station:SCCF:16:1,2010-11-01T15:00:00Z,26.4345,-81.9647,2.703,33.85,1111122 
SCCF RECON,ioos:station:SCCF:16:1,2010-11-01T16:00:00Z,26.4345,-81.9647,2.545,33.92,1111122 
SCCF RECON,ioos:station:SCCF:16:1,2010-11-01T17:00:00Z,26.4345,-81.9647,2.41,33.95,1111122 
SCCF RECON,ioos:station:SCCF:16:1,2010-11-01T18:00:00Z,26.4345,-81.9647,2.305,33.69,1111122 
SCCF RECON,ioos:station:SCCF:16:1,2010-11-01T19:00:00Z,26.4345,-81.9647,2.208,33.31,1111122 
SCCF RECON,ioos:station:SCCF:16:1,2010-11-01T20:00:00Z,26.4345,-81.9647,2.237,32.99,1111122 
SCCF RECON,ioos:station:SCCF:16:1,2010-11-01T21:00:00Z,26.4345,-81.9647,2.376,33.13,1111122 
SCCF RECON,ioos:station:SCCF:16:1,2010-11-01T22:00:00Z,26.4345,-81.9647,2.544,33.28,1111122 
SCCF RECON,ioos:station:SCCF:16:1,2010-11-01T23:00:00Z,26.4345,-81.9647,2.637,33.69,1111122 
SCCF RECON,ioos:station:SCCF:16:1,2010-11-02T00:00:00Z,26.4345,-81.9647,2.716,33.81,1111122 
SCCF RECON,ioos:station:SCCF:16:1,2010-11-02T01:00:00Z,26.4345,-81.9647,2.821,33.97,1111122 
SCCF RECON,ioos:station:SCCF:16:1,2010-11-02T02:00:00Z,26.4345,-81.9647,2.857,33.9,1111122 
SCCF RECON,ioos:station:SCCF:16:1,2010-11-02T03:00:00Z,26.4345,-81.9647,2.787,33.89,1111122 
SCCF RECON,ioos:station:SCCF:16:1,2010-11-02T04:00:00Z,26.4345,-81.9647,2.668,33.89,1111122 
SCCF RECON,ioos:station:SCCF:16:1,2010-11-02T05:00:00Z,26.4345,-81.9647,2.499,33.89,1111122 
SCCF RECON,ioos:station:SCCF:16:1,2010-11-02T06:00:00Z,26.4345,-81.9647,2.347,33.86,1111122 
SCCF RECON,ioos:station:SCCF:16:1,2010-11-02T07:00:00Z,26.4345,-81.9647,2.215,33.25,1111122 
SCCF RECON,ioos:station:SCCF:16:1,2010-11-02T08:00:00Z,26.4345,-81.9647,2.133,33.32,1111122 
SCCF RECON,ioos:station:SCCF:16:1,2010-11-02T09:00:00Z,26.4345,-81.9647,2.215,33.06,1111122 
SCCF RECON,ioos:station:SCCF:16:1,2010-11-02T10:00:00Z,26.4345,-81.9647,2.366,32.94,1111122 
SCCF RECON,ioos:station:SCCF:16:1,2010-11-02T11:00:00Z,26.4345,-81.9647,2.508,33.09,1111122 
SCCF RECON,ioos:station:SCCF:16:1,2010-11-02T12:00:00Z,26.4345,-81.9647,2.626,33.26,1111122 
SCCF RECON,ioos:station:SCCF:16:1,2010-11-02T13:00:00Z,26.4345,-81.9647,2.725,33.31,1111122 
SCCF RECON,ioos:station:SCCF:16:1,2010-11-02T14:00:00Z,26.4345,-81.9647,2.758,33.46,1111122 
SCCF RECON,ioos:station:SCCF:16:1,2010-11-02T15:00:00Z,26.4345,-81.9647,2.741,33.79,1111122 
SCCF RECON,ioos:station:SCCF:16:1,2010-11-02T16:00:00Z,26.4345,-81.9647,2.663,33.75,1111122 
SCCF RECON,ioos:station:SCCF:16:1,2010-11-02T17:00:00Z,26.4345,-81.9647,2.514,33.7,1111122 
SCCF RECON,ioos:station:SCCF:16:1,2010-11-02T18:00:00Z,26.4345,-81.9647,2.386,33.67,1111122 
SCCF RECON,ioos:station:SCCF:16:1,2010-11-02T19:00:00Z,26.4345,-81.9647,2.296,33.64,1111122 
SCCF RECON,ioos:station:SCCF:16:1,2010-11-02T20:00:00Z,26.4345,-81.9647,2.202,33.21,1111122 
SCCF RECON,ioos:station:SCCF:16:1,2010-11-02T21:00:00Z,26.4345,-81.9647,2.244,33.05,1111122 
SCCF RECON,ioos:station:SCCF:16:1,2010-11-02T22:00:00Z,26.4345,-81.9647,2.42,33.22,1111122 
SCCF RECON,ioos:station:SCCF:16:1,2010-11-02T23:00:00Z,26.4345,-81.9647,2.587,33.26,1111122 
SCCF RECON,ioos:station:SCCF:16:1,2010-11-03T00:00:00Z,26.4345,-81.9647,2.724,33.53,1111122 
SCCF RECON,ioos:station:SCCF:16:1,2010-11-03T01:00:00Z,26.4345,-81.9647,2.807,33.51,1111122 
SCCF RECON,ioos:station:SCCF:16:1,2010-11-03T02:00:00Z,26.4345,-81.9647,2.892,33.62,1111122 
SCCF RECON,ioos:station:SCCF:16:1,2010-11-03T03:00:00Z,26.4345,-81.9647,2.919,33.73,1111122 
SCCF RECON,ioos:station:SCCF:16:1,2010-11-03T04:00:00Z,26.4345,-81.9647,2.765,33.82,1111122 
SCCF RECON,ioos:station:SCCF:16:1,2010-11-03T05:00:00Z,26.4345,-81.9647,2.573,33.84,1111122 
SCCF RECON,ioos:station:SCCF:16:1,2010-11-03T06:00:00Z,26.4345,-81.9647,2.403,33.7,1111122 
SCCF RECON,ioos:station:SCCF:16:1,2010-11-03T07:00:00Z,26.4345,-81.9647,2.237,33.41,1111122 
SCCF RECON,ioos:station:SCCF:16:1,2010-11-03T08:00:00Z,26.4345,-81.9647,2.094,33.33,1111122 
SCCF RECON,ioos:station:SCCF:16:1,2010-11-03T09:00:00Z,26.4345,-81.9647,2.019,33.18,1111122 
SCCF RECON,ioos:station:SCCF:16:1,2010-11-03T10:00:00Z,26.4345,-81.9647,2.184,33.48,1111122 
SCCF RECON,ioos:station:SCCF:16:1,2010-11-03T11:00:00Z,26.4345,-81.9647,2.37,33.57,1111122 
SCCF RECON,ioos:station:SCCF:16:1,2010-11-03T12:00:00Z,26.4345,-81.9647,2.537,33.64,1111122 
SCCF RECON,ioos:station:SCCF:16:1,2010-11-03T13:00:00Z,26.4345,-81.9647,2.651,33.54,1111122 
SCCF RECON,ioos:station:SCCF:16:1,2010-11-03T14:00:00Z,26.4345,-81.9647,2.763,33.51,1111122 
SCCF RECON,ioos:station:SCCF:16:1,2010-11-03T15:00:00Z,26.4345,-81.9647,2.824,33.48,1111122 
SCCF RECON,ioos:station:SCCF:16:1,2010-11-03T16:00:00Z,26.4345,-81.9647,2.837,33.59,1111122 
SCCF RECON,ioos:station:SCCF:16:1,2010-11-03T17:00:00Z,26.4345,-81.9647,2.696,33.7,1111122 
SCCF RECON,ioos:station:SCCF:16:1,2010-11-03T18:00:00Z,26.4345,-81.9647,2.53,33.81,1111122 
SCCF RECON,ioos:station:SCCF:16:1,2010-11-03T19:00:00Z,26.4345,-81.9647,2.481,33.64,1111122 
SCCF RECON,ioos:station:SCCF:16:1,2010-11-03T20:00:00Z,26.4345,-81.9647,2.376,33.49,1111122 
SCCF RECON,ioos:station:SCCF:16:1,2010-11-03T21:00:00Z,26.4345,-81.9647,2.34,33.36,1111122 
SCCF RECON,ioos:station:SCCF:16:1,2010-11-03T22:00:00Z,26.4345,-81.9647,2.401,33.4,1111122 
SCCF RECON,ioos:station:SCCF:16:1,2010-11-03T23:00:00Z,26.4345,-81.9647,2.532,33.51,1111122 
SCCF RECON,ioos:station:SCCF:16:1,2010-11-04T00:00:00Z,26.4345,-81.9647,2.711,33.47,1111122 
SCCF RECON,ioos:station:SCCF:16:1,2010-11-04T01:00:00Z,26.4345,-81.9647,2.831,33.56,1111122 
SCCF RECON,ioos:station:SCCF:16:1,2010-11-04T02:00:00Z,26.4345,-81.9647,2.891,33.88,1111122 
SCCF RECON,ioos:station:SCCF:16:1,2010-11-04T03:00:00Z,26.4345,-81.9647,2.941,34.02,1111122 
SCCF RECON,ioos:station:SCCF:16:1,2010-11-04T04:00:00Z,26.4345,-81.9647,2.904,34.22,1111122 
SCCF RECON,ioos:station:SCCF:16:1,2010-11-04T05:00:00Z,26.4345,-81.9647,2.753,34.26,1111122 
SCCF RECON,ioos:station:SCCF:16:1,2010-11-04T06:00:00Z,26.4345,-81.9647,2.58,34.14,1111122 
SCCF RECON,ioos:station:SCCF:16:1,2010-11-04T07:00:00Z,26.4345,-81.9647,2.445,33.88,1111122 
SCCF RECON,ioos:station:SCCF:16:1,2010-11-04T08:00:00Z,26.4345,-81.9647,2.127,33.55,1111122 
SCCF RECON,ioos:station:SCCF:16:1,2010-11-04T09:00:00Z,26.4345,-81.9647,2.051,33.32,1111122 
SCCF RECON,ioos:station:SCCF:16:1,2010-11-04T10:00:00Z,26.4345,-81.9647,1.895,33.32,1111122 
SCCF RECON,ioos:station:SCCF:16:1,2010-11-04T11:00:00Z,26.4345,-81.9647,2.149,33.53,1111122 
SCCF RECON,ioos:station:SCCF:16:1,2010-11-04T12:00:00Z,26.4345,-81.9647,2.469,33.57,1111122 
SCCF RECON,ioos:station:SCCF:16:1,2010-11-04T13:00:00Z,26.4345,-81.9647,2.695,33.69,1111122 
SCCF RECON,ioos:station:SCCF:16:1,2010-11-04T14:00:00Z,26.4345,-81.9647,2.8,33.92,1111122 
SCCF RECON,ioos:station:SCCF:16:1,2010-11-04T15:00:00Z,26.4345,-81.9647,2.912,33.92,1111122 
SCCF RECON,ioos:station:SCCF:16:1,2010-11-04T16:00:00Z,26.4345,-81.9647,2.968,34.09,1111122 
SCCF RECON,ioos:station:SCCF:16:1,2010-11-04T17:00:00Z,26.4345,-81.9647,2.934,34.15,1111122 
SCCF RECON,ioos:station:SCCF:16:1,2010-11-04T18:00:00Z,26.4345,-81.9647,2.813,34.09,1111122 
SCCF RECON,ioos:station:SCCF:16:1,2010-11-04T19:00:00Z,26.4345,-81.9647,2.723,34.02,1111122 
SCCF RECON,ioos:station:SCCF:16:1,2010-11-04T20:00:00Z,26.4345,-81.9647,2.587,33.93,1111122 
SCCF RECON,ioos:station:SCCF:16:1,2010-11-04T21:00:00Z,26.4345,-81.9647,2.447,33.8,1111122 
SCCF RECON,ioos:station:SCCF:16:1,2010-11-04T22:00:00Z,26.4345,-81.9647,2.505,33.8,1111122 
SCCF RECON,ioos:station:SCCF:16:1,2010-11-04T23:00:00Z,26.4345,-81.9647,2.566,33.92,1111122 
SCCF RECON,ioos:station:SCCF:16:1,2010-11-05T00:00:00Z,26.4345,-81.9647,2.762,34.21,1111122 
SCCF RECON,ioos:station:SCCF:16:1,2010-11-05T01:00:00Z,26.4345,-81.9647,2.893,34.34,1111122 
SCCF RECON,ioos:station:SCCF:16:1,2010-11-05T02:00:00Z,26.4345,-81.9647,3.016,34.36,1111122 
SCCF RECON,ioos:station:SCCF:16:1,2010-11-05T03:00:00Z,26.4345,-81.9647,3.065,34.37,1111122 
SCCF RECON,ioos:station:SCCF:16:1,2010-11-05T04:00:00Z,26.4345,-81.9647,3.078,34.37,1111122 
SCCF RECON,ioos:station:SCCF:16:1,2010-11-05T05:00:00Z,26.4345,-81.9647,2.966,34.38,1111122 
SCCF RECON,ioos:station:SCCF:16:1,2010-11-05T06:00:00Z,26.4345,-81.9647,2.738,34.37,1111122 
SCCF RECON,ioos:station:SCCF:16:1,2010-11-05T07:00:00Z,26.4345,-81.9647,2.427,34.36,1111122 
SCCF RECON,ioos:station:SCCF:16:1,2010-11-05T08:00:00Z,26.4345,-81.9647,2.002,34.18,1111122 
SCCF RECON,ioos:station:SCCF:16:1,2010-11-05T09:00:00Z,26.4345,-81.9647,1.769,33.75,1111122 
SCCF RECON,ioos:station:SCCF:16:1,2010-11-05T10:00:00Z,26.4345,-81.9647,1.602,32.83,1111122 
SCCF RECON,ioos:station:SCCF:16:1,2010-11-05T11:00:00Z,26.4345,-81.9647,1.639,32.35,1111122 
SCCF RECON,ioos:station:SCCF:16:1,2010-11-05T12:00:00Z,26.4345,-81.9647,1.808,33.29,1111122 
SCCF RECON,ioos:station:SCCF:16:1,2010-11-05T13:00:00Z,26.4345,-81.9647,2.149,32.81,1111122 
SCCF RECON,ioos:station:SCCF:16:1,2010-11-05T14:00:00Z,26.4345,-81.9647,2.294,32.78,1111122 
SCCF RECON,ioos:station:SCCF:16:1,2010-11-05T15:00:00Z,26.4345,-81.9647,2.386,32.31,1111122 
SCCF RECON,ioos:station:SCCF:16:1,2010-11-05T16:00:00Z,26.4345,-81.9647,2.506,32.73,1111122 
SCCF RECON,ioos:station:SCCF:16:1,2010-11-05T17:00:00Z,26.4345,-81.9647,2.573,33.07,1111122 
SCCF RECON,ioos:station:SCCF:16:1,2010-11-05T18:00:00Z,26.4345,-81.9647,2.477,33.06,1111122 
SCCF RECON,ioos:station:SCCF:16:1,2010-11-05T19:00:00Z,26.4345,-81.9647,2.369,33.03,1111122 
SCCF RECON,ioos:station:SCCF:16:1,2010-11-05T20:00:00Z,26.4345,-81.9647,2.247,33.03,1111122 
SCCF RECON,ioos:station:SCCF:16:1,2010-11-05T21:00:00Z,26.4345,-81.9647,2.214,32.69,1111122 
SCCF RECON,ioos:station:SCCF:16:1,2010-11-05T22:00:00Z,26.4345,-81.9647,2.172,32.03,1111122 
SCCF RECON,ioos:station:SCCF:16:1,2010-11-05T23:00:00Z,26.4345,-81.9647,2.225,31.66,1111122 
SCCF RECON,ioos:station:SCCF:16:1,2010-11-06T00:00:00Z,26.4345,-81.9647,2.374,31.68,1111122 
SCCF RECON,ioos:station:SCCF:16:1,2010-11-06T01:00:00Z,26.4345,-81.9647,2.558,32.0,1111122 
SCCF RECON,ioos:station:SCCF:16:1,2010-11-06T02:00:00Z,26.4345,-81.9647,2.764,32.64,1111122 
SCCF RECON,ioos:station:SCCF:16:1,2010-11-06T03:00:00Z,26.4345,-81.9647,2.878,32.91,1111122 
SCCF RECON,ioos:station:SCCF:16:1,2010-11-06T04:00:00Z,26.4345,-81.9647,2.866,32.93,1111122 
SCCF RECON,ioos:station:SCCF:16:1,2010-11-06T05:00:00Z,26.4345,-81.9647,2.762,33.0,1111122 
SCCF RECON,ioos:station:SCCF:16:1,2010-11-06T06:00:00Z,26.4345,-81.9647,2.609,33.02,1111122 
SCCF RECON,ioos:station:SCCF:16:1,2010-11-06T07:00:00Z,26.4345,-81.9647,2.378,32.95,1111122 
SCCF RECON,ioos:station:SCCF:16:1,2010-11-06T08:00:00Z,26.4345,-81.9647,2.179,32.42,1111122 
SCCF RECON,ioos:station:SCCF:16:1,2010-11-06T09:00:00Z,26.4345,-81.9647,1.986,31.75,1111122 
SCCF RECON,ioos:station:SCCF:16:1,2010-11-06T10:00:00Z,26.4345,-81.9647,1.732,31.48,1111122 
SCCF RECON,ioos:station:SCCF:16:1,2010-11-06T11:00:00Z,26.4345,-81.9647,1.613,29.49,1111122 
SCCF RECON,ioos:station:SCCF:16:1,2010-11-06T12:00:00Z,26.4345,-81.9647,1.72,29.77,1111122 
SCCF RECON,ioos:station:SCCF:16:1,2010-11-06T13:00:00Z,26.4345,-81.9647,1.953,29.44,1111122 
SCCF RECON,ioos:station:SCCF:16:1,2010-11-06T14:00:00Z,26.4345,-81.9647,2.159,29.4,1111122 
SCCF RECON,ioos:station:SCCF:16:1,2010-11-06T15:00:00Z,26.4345,-81.9647,2.312,29.76,1111122 
SCCF RECON,ioos:station:SCCF:16:1,2010-11-06T16:00:00Z,26.4345,-81.9647,2.423,30.28,1111122 
SCCF RECON,ioos:station:SCCF:16:1,2010-11-06T17:00:00Z,26.4345,-81.9647,2.539,31.75,1111122 
SCCF RECON,ioos:station:SCCF:16:1,2010-11-06T18:00:00Z,26.4345,-81.9647,2.54,31.38,1111122 
SCCF RECON,ioos:station:SCCF:16:1,2010-11-06T19:00:00Z,26.4345,-81.9647,2.453,31.32,1111122 
SCCF RECON,ioos:station:SCCF:16:1,2010-11-06T20:00:00Z,26.4345,-81.9647,2.359,31.49,1111122 
SCCF RECON,ioos:station:SCCF:16:1,2010-11-06T21:00:00Z,26.4345,-81.9647,2.304,31.43,1111122 
SCCF RECON,ioos:station:SCCF:16:1,2010-11-06T22:00:00Z,26.4345,-81.9647,2.266,31.14,1111122 
SCCF RECON,ioos:station:SCCF:16:1,2010-11-06T23:00:00Z,26.4345,-81.9647,2.268,30.82,1111122 
SCCF RECON,ioos:station:SCCF:16:1,2010-11-07T00:00:00Z,26.4345,-81.9647,2.326,30.72,1111122 
SCCF RECON,ioos:station:SCCF:16:1,2010-11-07T01:00:00Z,26.4345,-81.9647,2.453,30.79,1111122 
SCCF RECON,ioos:station:SCCF:16:1,2010-11-07T02:00:00Z,26.4345,-81.9647,2.597,31.29,1111122 
SCCF RECON,ioos:station:SCCF:16:1,2010-11-07T03:00:00Z,26.4345,-81.9647,2.727,31.56,1111122 
SCCF RECON,ioos:station:SCCF:16:1,2010-11-07T04:00:00Z,26.4345,-81.9647,2.782,31.67,1111122 
SCCF RECON,ioos:station:SCCF:16:1,2010-11-07T05:00:00Z,26.4345,-81.9647,2.759,32.16,1111122 
SCCF RECON,ioos:station:SCCF:16:1,2010-11-07T06:00:00Z,26.4345,-81.9647,2.615,32.09,1111122 
SCCF RECON,ioos:station:SCCF:16:1,2010-11-07T07:00:00Z,26.4345,-81.9647,2.414,32.03,1111122 
SCCF RECON,ioos:station:SCCF:16:1,2010-11-07T08:00:00Z,26.4345,-81.9647,2.201,31.62,1111122 
SCCF RECON,ioos:station:SCCF:16:1,2010-11-07T09:00:00Z,26.4345,-81.9647,2.049,30.96,1111122 
SCCF RECON,ioos:station:SCCF:16:1,2010-11-07T10:00:00Z,26.4345,-81.9647,1.83,31.09,1111122 
SCCF RECON,ioos:station:SCCF:16:1,2010-11-07T11:00:00Z,26.4345,-81.9647,1.678,29.06,1111122 
SCCF RECON,ioos:station:SCCF:16:1,2010-11-07T12:00:00Z,26.4345,-81.9647,1.615,29.19,1111122 
SCCF RECON,ioos:station:SCCF:16:1,2010-11-07T13:00:00Z,26.4345,-81.9647,1.7,29.78,1111122 
SCCF RECON,ioos:station:SCCF:16:1,2010-11-07T14:00:00Z,26.4345,-81.9647,1.959,29.71,1111122 
SCCF RECON,ioos:station:SCCF:16:1,2010-11-07T15:00:00Z,26.4345,-81.9647,2.191,29.16,1111122 
SCCF RECON,ioos:station:SCCF:16:1,2010-11-07T16:00:00Z,26.4345,-81.9647,2.373,29.52,1111122 
SCCF RECON,ioos:station:SCCF:16:1,2010-11-07T17:00:00Z,26.4345,-81.9647,2.471,29.88,1111122 
SCCF RECON,ioos:station:SCCF:16:1,2010-11-07T18:00:00Z,26.4345,-81.9647,2.528,30.91,1111122 
SCCF RECON,ioos:station:SCCF:16:1,2010-11-07T19:00:00Z,26.4345,-81.9647,2.527,31.58,1111122 
SCCF RECON,ioos:station:SCCF:16:1,2010-11-07T20:00:00Z,26.4345,-81.9647,2.481,31.53,1111122 
SCCF RECON,ioos:station:SCCF:16:1,2010-11-07T21:00:00Z,26.4345,-81.9647,2.427,31.27,1111122 
SCCF RECON,ioos:station:SCCF:16:1,2010-11-07T22:00:00Z,26.4345,-81.9647,2.42,31.65,1111122 
SCCF RECON,ioos:station:SCCF:16:1,2010-11-07T23:00:00Z,26.4345,-81.9647,2.377,31.59,1111122 
SCCF RECON,ioos:station:SCCF:16:1,2010-11-08T00:00:00Z,26.4345,-81.9647,2.372,31.53,1111122 
SCCF RECON,ioos:station:SCCF:16:1,2010-11-08T01:00:00Z,26.4345,-81.9647,2.395,31.31,1111122 
SCCF RECON,ioos:station:SCCF:16:1,2010-11-08T02:00:00Z,26.4345,-81.9647,2.501,31.48,1111122 
SCCF RECON,ioos:station:SCCF:16:1,2010-11-08T03:00:00Z,26.4345,-81.9647,2.628,31.8,1111122 
SCCF RECON,ioos:station:SCCF:16:1,2010-11-08T04:00:00Z,26.4345,-81.9647,2.728,31.95,1111122 
SCCF RECON,ioos:station:SCCF:16:1,2010-11-08T05:00:00Z,26.4345,-81.9647,2.741,32.22,1111122 
SCCF RECON,ioos:station:SCCF:16:1,2010-11-08T06:00:00Z,26.4345,-81.9647,2.67,32.35,1111122 
SCCF RECON,ioos:station:SCCF:16:1,2010-11-08T07:00:00Z,26.4345,-81.9647,2.547,32.47,1111122 
SCCF RECON,ioos:station:SCCF:16:1,2010-11-08T08:00:00Z,26.4345,-81.9647,2.357,32.39,1111122 
SCCF RECON,ioos:station:SCCF:16:1,2010-11-08T09:00:00Z,26.4345,-81.9647,2.131,31.8,1111122 
SCCF RECON,ioos:station:SCCF:16:1,2010-11-08T10:00:00Z,26.4345,-81.9647,1.94,30.33,1111122 
SCCF RECON,ioos:station:SCCF:16:1,2010-11-08T11:00:00Z,26.4345,-81.9647,1.821,30.7,1111122 
SCCF RECON,ioos:station:SCCF:16:1,2010-11-08T12:00:00Z,26.4345,-81.9647,1.683,29.93,1111122 
SCCF RECON,ioos:station:SCCF:16:1,2010-11-08T13:00:00Z,26.4345,-81.9647,1.686,29.98,1111122 
SCCF RECON,ioos:station:SCCF:16:1,2010-11-08T14:00:00Z,26.4345,-81.9647,1.831,29.93,1111122 
SCCF RECON,ioos:station:SCCF:16:1,2010-11-08T15:00:00Z,26.4345,-81.9647,2.068,30.16,1111122 
SCCF RECON,ioos:station:SCCF:16:1,2010-11-08T16:00:00Z,26.4345,-81.9647,2.298,29.61,1111122 
SCCF RECON,ioos:station:SCCF:16:1,2010-11-08T17:00:00Z,26.4345,-81.9647,2.442,30.23,1111122 
SCCF RECON,ioos:station:SCCF:16:1,2010-11-08T18:00:00Z,26.4345,-81.9647,2.551,31.03,1111122 
SCCF RECON,ioos:station:SCCF:16:1,2010-11-08T19:00:00Z,26.4345,-81.9647,2.593,31.86,1111122 
SCCF RECON,ioos:station:SCCF:16:1,2010-11-08T20:00:00Z,26.4345,-81.9647,2.578,32.25,1111122 
SCCF RECON,ioos:station:SCCF:16:1,2010-11-08T21:00:00Z,26.4345,-81.9647,2.524,32.56,1111122 
SCCF RECON,ioos:station:SCCF:16:1,2010-11-08T22:00:00Z,26.4345,-81.9647,2.48,32.68,1111122 
SCCF RECON,ioos:station:SCCF:16:1,2010-11-08T23:00:00Z,26.4345,-81.9647,2.461,32.74,1111122 
SCCF RECON,ioos:station:SCCF:16:1,2010-11-09T00:00:00Z,26.4345,-81.9647,2.465,32.84,1111122 
SCCF RECON,ioos:station:SCCF:16:1,2010-11-09T01:00:00Z,26.4345,-81.9647,2.464,32.48,1111122 
SCCF RECON,ioos:station:SCCF:16:1,2010-11-09T02:00:00Z,26.4345,-81.9647,2.554,33.21,1111122 
SCCF RECON,ioos:station:SCCF:16:1,2010-11-09T03:00:00Z,26.4345,-81.9647,2.685,33.32,1111122 
SCCF RECON,ioos:station:SCCF:16:1,2010-11-09T04:00:00Z,26.4345,-81.9647,2.826,33.47,1111122 
SCCF RECON,ioos:station:SCCF:16:1,2010-11-09T05:00:00Z,26.4345,-81.9647,2.896,33.58,1111122 
SCCF RECON,ioos:station:SCCF:16:1,2010-11-09T06:00:00Z,26.4345,-81.9647,2.901,33.64,1111122 
SCCF RECON,ioos:station:SCCF:16:1,2010-11-09T07:00:00Z,26.4345,-81.9647,2.865,33.64,1111122 
SCCF RECON,ioos:station:SCCF:16:1,2010-11-09T08:00:00Z,26.4345,-81.9647,2.736,33.65,1111122 
SCCF RECON,ioos:station:SCCF:16:1,2010-11-09T09:00:00Z,26.4345,-81.9647,2.543,33.61,1111122 
SCCF RECON,ioos:station:SCCF:16:1,2010-11-09T10:00:00Z,26.4345,-81.9647,2.358,33.19,1111122 
SCCF RECON,ioos:station:SCCF:16:1,2010-11-09T11:00:00Z,26.4345,-81.9647,2.184,32.34,1111122 
SCCF RECON,ioos:station:SCCF:16:1,2010-11-09T12:00:00Z,26.4345,-81.9647,2.003,31.52,1111122 
SCCF RECON,ioos:station:SCCF:16:1,2010-11-09T13:00:00Z,26.4345,-81.9647,1.888,30.92,1111122 
SCCF RECON,ioos:station:SCCF:16:1,2010-11-09T14:00:00Z,26.4345,-81.9647,1.91,30.11,1111122 
SCCF RECON,ioos:station:SCCF:16:1,2010-11-09T15:00:00Z,26.4345,-81.9647,2.073,30.86,1111122 
SCCF RECON,ioos:station:SCCF:16:1,2010-11-09T16:00:00Z,26.4345,-81.9647,2.28,30.96,1111122 
SCCF RECON,ioos:station:SCCF:16:1,2010-11-09T17:00:00Z,26.4345,-81.9647,2.417,31.54,1111122 
SCCF RECON,ioos:station:SCCF:16:1,2010-11-09T18:00:00Z,26.4345,-81.9647,2.493,32.35,1111122 
SCCF RECON,ioos:station:SCCF:16:1,2010-11-09T19:00:00Z,26.4345,-81.9647,2.544,32.71,1111122 
SCCF RECON,ioos:station:SCCF:16:1,2010-11-09T20:00:00Z,26.4345,-81.9647,2.591,32.92,1111122 
SCCF RECON,ioos:station:SCCF:16:1,2010-11-09T21:00:00Z,26.4345,-81.9647,2.565,33.06,1111122 
SCCF RECON,ioos:station:SCCF:16:1,2010-11-09T22:00:00Z,26.4345,-81.9647,2.526,33.04,1111122 
SCCF RECON,ioos:station:SCCF:16:1,2010-11-09T23:00:00Z,26.4345,-81.9647,2.494,32.91,1111122 
SCCF RECON,ioos:station:SCCF:16:1,2010-11-10T00:00:00Z,26.4345,-81.9647,2.474,32.97,1111122 
SCCF RECON,ioos:station:SCCF:16:1,2010-11-10T01:00:00Z,26.4345,-81.9647,2.458,33.11,1111122 
SCCF RECON,ioos:station:SCCF:16:1,2010-11-10T02:00:00Z,26.4345,-81.9647,2.484,33.24,1111122 
SCCF RECON,ioos:station:SCCF:16:1,2010-11-10T03:00:00Z,26.4345,-81.9647,2.575,33.16,1111122 
SCCF RECON,ioos:station:SCCF:16:1,2010-11-10T04:00:00Z,26.4345,-81.9647,2.694,33.2,1111122 
SCCF RECON,ioos:station:SCCF:16:1,2010-11-10T05:00:00Z,26.4345,-81.9647,2.796,33.38,1111122 
SCCF RECON,ioos:station:SCCF:16:1,2010-11-10T06:00:00Z,26.4345,-81.9647,2.852,33.54,1111122 
SCCF RECON,ioos:station:SCCF:16:1,2010-11-10T07:00:00Z,26.4345,-81.9647,2.875,33.69,1111122 
SCCF RECON,ioos:station:SCCF:16:1,2010-11-10T08:00:00Z,26.4345,-81.9647,2.836,33.74,1111122 
SCCF RECON,ioos:station:SCCF:16:1,2010-11-10T09:00:00Z,26.4345,-81.9647,2.731,33.79,1111122 
SCCF RECON,ioos:station:SCCF:16:1,2010-11-10T10:00:00Z,26.4345,-81.9647,2.567,33.75,1111122 
SCCF RECON,ioos:station:SCCF:16:1,2010-11-10T11:00:00Z,26.4345,-81.9647,2.41,33.48,1111122 
SCCF RECON,ioos:station:SCCF:16:1,2010-11-10T12:00:00Z,26.4345,-81.9647,2.258,32.79,1111122 
SCCF RECON,ioos:station:SCCF:16:1,2010-11-10T13:00:00Z,26.4345,-81.9647,2.107,32.29,1111122 
SCCF RECON,ioos:station:SCCF:16:1,2010-11-10T14:00:00Z,26.4345,-81.9647,2.048,32.29,1111122 
SCCF RECON,ioos:station:SCCF:16:1,2010-11-10T15:00:00Z,26.4345,-81.9647,2.104,31.03,1111122 
SCCF RECON,ioos:station:SCCF:16:1,2010-11-10T16:00:00Z,26.4345,-81.9647,2.261,31.15,1111122 
SCCF RECON,ioos:station:SCCF:16:1,2010-11-10T17:00:00Z,26.4345,-81.9647,2.431,31.63,1111122 
SCCF RECON,ioos:station:SCCF:16:1,2010-11-10T18:00:00Z,26.4345,-81.9647,2.53,32.29,1111122 
SCCF RECON,ioos:station:SCCF:16:1,2010-11-10T19:00:00Z,26.4345,-81.9647,2.61,32.83,1111122 
SCCF RECON,ioos:station:SCCF:16:1,2010-11-10T20:00:00Z,26.4345,-81.9647,2.656,32.92,1111122 
SCCF RECON,ioos:station:SCCF:16:1,2010-11-10T21:00:00Z,26.4345,-81.9647,2.689,33.11,1111122 
SCCF RECON,ioos:station:SCCF:16:1,2010-11-10T22:00:00Z,26.4345,-81.9647,2.66,33.31,1111122 
SCCF RECON,ioos:station:SCCF:16:1,2010-11-10T23:00:00Z,26.4345,-81.9647,2.607,33.32,1111122 
SCCF RECON,ioos:station:SCCF:16:1,2010-11-11T00:00:00Z,26.4345,-81.9647,2.599,33.39,1111122 
SCCF RECON,ioos:station:SCCF:16:1,2010-11-11T01:00:00Z,26.4345,-81.9647,2.572,33.44,1111122 
SCCF RECON,ioos:station:SCCF:16:1,2010-11-11T02:00:00Z,26.4345,-81.9647,2.546,33.43,1111122 
SCCF RECON,ioos:station:SCCF:16:1,2010-11-11T03:00:00Z,26.4345,-81.9647,2.583,33.39,1111122 
SCCF RECON,ioos:station:SCCF:16:1,2010-11-11T04:00:00Z,26.4345,-81.9647,2.644,33.37,1111122 
SCCF RECON,ioos:station:SCCF:16:1,2010-11-11T05:00:00Z,26.4345,-81.9647,2.732,33.5,1111122 
SCCF RECON,ioos:station:SCCF:16:1,2010-11-11T06:00:00Z,26.4345,-81.9647,2.794,33.51,1111122 
SCCF RECON,ioos:station:SCCF:16:1,2010-11-11T07:00:00Z,26.4345,-81.9647,2.832,33.46,1111122 
SCCF RECON,ioos:station:SCCF:16:1,2010-11-11T08:00:00Z,26.4345,-81.9647,2.821,33.52,1111122 
SCCF RECON,ioos:station:SCCF:16:1,2010-11-11T09:00:00Z,26.4345,-81.9647,2.78,33.42,1111122 
SCCF RECON,ioos:station:SCCF:16:1,2010-11-11T10:00:00Z,26.4345,-81.9647,2.686,33.24,1111122 
SCCF RECON,ioos:station:SCCF:16:1,2010-11-11T11:00:00Z,26.4345,-81.9647,2.57,33.31,1111122 
SCCF RECON,ioos:station:SCCF:16:1,2010-11-11T12:00:00Z,26.4345,-81.9647,2.426,33.33,1111122 
SCCF RECON,ioos:station:SCCF:16:1,2010-11-11T13:00:00Z,26.4345,-81.9647,2.27,32.86,1111122 
SCCF RECON,ioos:station:SCCF:16:1,2010-11-11T14:00:00Z,26.4345,-81.9647,2.162,32.07,1111122 
SCCF RECON,ioos:station:SCCF:16:1,2010-11-11T15:00:00Z,26.4345,-81.9647,2.149,32.4,1111122 
SCCF RECON,ioos:station:SCCF:16:1,2010-11-11T16:00:00Z,26.4345,-81.9647,2.214,31.7,1111122 